Weather in Kirovskoe

Russia / Republic of Crimea     45°13′45″N   35°12′33″E
temp.,
°C
wind,
m/s
gust,
m/s
humid.,
%
clouds,
%
prec.,
mm/h
press.,
hPa
HPBL,
m
4 march, thu
thu400:00+3w46720 0.0 1028136
03:00+3w45760 0.0 1027126
06:00+2wsw34750 0.0 1026103
09:00+5sw34610 0.0 1026158
12:00+9ssw45530 0.0 1024917
15:00+10sw34470 0.0 1022980
18:00+8ssw35630 0.0 1020208
21:00+5ssw597429 0.0 1020268
5 march, fri
fri500:00+5ssw69781 0.0 1019263
03:00+4ssw610810 0.0 1018215
06:00+4ssw48830 0.0 1017181
09:00+7ssw59760 0.0 1016289
12:00+11ssw68610 0.0 1016372
15:00+12ssw79560 0.0 1014396
18:00+9s711720 0.0 1014250
21:00+7ssw478416 0.0 1015146
6 march, sat
sat600:00+7ssw358764 0.0 101480
03:00+7sw448146 0.0 101478
06:00+7sw477172 0.0 1014102
09:00+9wnw6117486 0.0 1015417
12:00+7nnw81079100 0.0 1017687
15:00+4nnw81073100 0.1 1018946
18:00+4nnw91050100 0.0 10211310
21:00+3n91153100 0.0 10251270
7 march, sun
sun700:00+1nnw79516 0.0 1027735
03:000wnw58563 0.0 1028529
06:00−1wnw58570 0.0 1028469
09:00+1wnw45490 0.0 1029595
12:00+4wnw57380 0.0 10281671
15:00+6w573915 0.0 10261922
18:00+5w574793 0.0 10251158
21:00+2wsw595771 0.0 1024394
8 march, mon
mon800:00+1wsw48580 0.0 1023296
03:00+1sw47560 0.0 1022218
06:00+1ssw46550 0.0 1020197
09:00+3sw46500 0.0 1020418
12:00+6sw343544 0.0 10191580
15:00+8wsw344032 0.0 10181714
18:00+6wsw455395 0.0 10171000
21:00+3ssw356398 0.0 1017141